iso_date,Year,Hour,Min,DOY,POS_DOY,Lat,Lon,BP,Ts,Ta,has_bp,has_ts,has_ta,BuoyID,Buoy_Type,Buoy_Owner,Logistics,Hemisphere
2020-10-30T19:00:02Z,2020,19,0,304.7917,304.7917,61.062,-62.786,1004.2,2.0,-999.0,yes,yes,no,300234067974330,BD2GI,AOML,CCGS_AMUNDSEN,North
2020-10-30T19:59:57Z,2020,20,0,304.8333,304.8333,61.056,-62.775,1004.4,2.01,-999.0,yes,yes,no,300234067974330,BD2GI,AOML,CCGS_AMUNDSEN,North
2020-10-30T21:00:00Z,2020,21,0,304.875,304.875,61.046,-62.766,1004.6,2.01,-999.0,yes,yes,no,300234067974330,BD2GI,AOML,CCGS_AMUNDSEN,North
2020-10-30T22:00:02Z,2020,22,0,304.9167,304.9167,61.03,-62.774,1004.6,1.98,-999.0,yes,yes,no,300234067974330,BD2GI,AOML,CCGS_AMUNDSEN,North
2020-10-30T22:59:57Z,2020,23,0,304.9583,304.9583,61.011,-62.789,1004.5,1.84,-999.0,yes,yes,no,300234067974330,BD2GI,AOML,CCGS_AMUNDSEN,North
2020-10-31T00:00:00Z,2020,0,0,305.0,305.0,60.985,-62.795,1004.3,1.73,-999.0,yes,yes,no,300234067974330,BD2GI,AOML,CCGS_AMUNDSEN,North
2020-10-31T01:00:02Z,2020,1,0,305.0417,305.0417,60.961,-62.804,1004.1,1.69,-999.0,yes,yes,no,300234067974330,BD2GI,AOML,CCGS_AMUNDSEN,North
2020-10-31T01:59:57Z,2020,2,0,305.0833,305.0833,60.937,-62.814,1004.0,1.62,-999.0,yes,yes,no,300234067974330,BD2GI,AOML,CCGS_AMUNDSEN,North
2020-10-31T03:00:00Z,2020,3,0,305.125,305.125,60.918,-62.816,1003.5,1.65,-999.0,yes,yes,no,300234067974330,BD2GI,AOML,CCGS_AMUNDSEN,North
2020-10-31T04:00:02Z,2020,4,0,305.1667,305.1667,60.904,-62.812,1003.1,1.61,-999.0,yes,yes,no,300234067974330,BD2GI,AOML,CCGS_AMUNDSEN,North
2020-10-31T04:59:57Z,2020,5,0,305.2083,305.2083,60.893,-62.803,1002.6,1.49,-999.0,yes,yes,no,300234067974330,BD2GI,AOML,CCGS_AMUNDSEN,North
2020-10-31T06:00:00Z,2020,6,0,305.25,305.25,60.883,-62.788,1002.4,1.36,-999.0,yes,yes,no,300234067974330,BD2GI,AOML,CCGS_AMUNDSEN,North
2020-10-31T07:00:02Z,2020,7,0,305.2917,305.2917,60.874,-62.768,1002.0,1.45,-999.0,yes,yes,no,300234067974330,BD2GI,AOML,CCGS_AMUNDSEN,North
2020-10-31T07:59:57Z,2020,8,0,305.3333,305.3333,60.863,-62.745,1001.8,1.5,-999.0,yes,yes,no,300234067974330,BD2GI,AOML,CCGS_AMUNDSEN,North
2020-10-31T09:00:00Z,2020,9,0,305.375,305.375,60.84,-62.719,1001.4,1.04,-999.0,yes,yes,no,300234067974330,BD2GI,AOML,CCGS_AMUNDSEN,North
2020-10-31T10:00:02Z,2020,10,0,305.4167,305.4167,60.81,-62.7,1001.2,1.49,-999.0,yes,yes,no,300234067974330,BD2GI,AOML,CCGS_AMUNDSEN,North
2020-10-31T10:59:57Z,2020,11,0,305.4583,305.4583,60.781,-62.703,1000.7,1.56,-999.0,yes,yes,no,300234067974330,BD2GI,AOML,CCGS_AMUNDSEN,North
2020-10-31T12:00:00Z,2020,12,0,305.5,305.5,60.748,-62.719,1000.5,1.45,-999.0,yes,yes,no,300234067974330,BD2GI,AOML,CCGS_AMUNDSEN,North
2020-10-31T13:00:02Z,2020,13,0,305.5417,305.5417,60.717,-62.747,1000.1,1.33,-999.0,yes,yes,no,300234067974330,BD2GI,AOML,CCGS_AMUNDSEN,North
2020-10-31T13:59:57Z,2020,14,0,305.5833,305.5833,60.687,-62.78,999.8,1.12,-999.0,yes,yes,no,300234067974330,BD2GI,AOML,CCGS_AMUNDSEN,North
2020-10-31T15:00:00Z,2020,15,0,305.625,305.625,60.667,-62.807,999.4,1.18,-999.0,yes,yes,no,300234067974330,BD2GI,AOML,CCGS_AMUNDSEN,North
2020-10-31T16:00:02Z,2020,16,0,305.6667,305.6667,60.657,-62.824,998.9,1.27,-999.0,yes,yes,no,300234067974330,BD2GI,AOML,CCGS_AMUNDSEN,North
2020-10-31T16:59:57Z,2020,17,0,305.7083,305.7083,60.655,-62.834,998.8,1.32,-999.0,yes,yes,no,300234067974330,BD2GI,AOML,CCGS_AMUNDSEN,North
2020-10-31T18:00:00Z,2020,18,0,305.75,305.75,60.656,-62.817,999.3,1.28,-999.0,yes,yes,no,300234067974330,BD2GI,AOML,CCGS_AMUNDSEN,North
2020-10-31T19:00:02Z,2020,19,0,305.7917,305.7917,60.653,-62.785,1000.0,1.28,-999.0,yes,yes,no,300234067974330,BD2GI,AOML,CCGS_AMUNDSEN,North
2020-10-31T19:59:57Z,2020,20,0,305.8333,305.8333,60.646,-62.757,1000.4,1.29,-999.0,yes,yes,no,300234067974330,BD2GI,AOML,CCGS_AMUNDSEN,North
2020-10-31T21:00:00Z,2020,21,0,305.875,305.875,60.624,-62.726,1001.0,1.13,-999.0,yes,yes,no,300234067974330,BD2GI,AOML,CCGS_AMUNDSEN,North
2020-10-31T22:00:02Z,2020,22,0,305.9167,305.9167,60.594,-62.717,1001.0,1.3,-999.0,yes,yes,no,300234067974330,BD2GI,AOML,CCGS_AMUNDSEN,North
2020-10-31T22:59:57Z,2020,23,0,305.9583,305.9583,60.565,-62.734,1001.2,1.32,-999.0,yes,yes,no,300234067974330,BD2GI,AOML,CCGS_AMUNDSEN,North
2020-11-01T00:00:00Z,2020,0,0,306.0,306.0,60.536,-62.764,1001.8,1.35,-999.0,yes,yes,no,300234067974330,BD2GI,AOML,CCGS_AMUNDSEN,North
2020-11-01T01:00:02Z,2020,1,0,306.0417,306.0417,60.512,-62.796,1002.2,1.35,-999.0,yes,yes,no,300234067974330,BD2GI,AOML,CCGS_AMUNDSEN,North
2020-11-01T01:59:57Z,2020,2,0,306.0833,306.0833,60.496,-62.818,1003.1,1.4,-999.0,yes,yes,no,300234067974330,BD2GI,AOML,CCGS_AMUNDSEN,North
2020-11-01T03:00:00Z,2020,3,0,306.125,306.125,60.488,-62.816,1003.8,1.41,-999.0,yes,yes,no,300234067974330,BD2GI,AOML,CCGS_AMUNDSEN,North
2020-11-01T04:00:02Z,2020,4,0,306.1667,306.1667,60.485,-62.79,1004.3,1.4,-999.0,yes,yes,no,300234067974330,BD2GI,AOML,CCGS_AMUNDSEN,North
2020-11-01T04:59:57Z,2020,5,0,306.2083,306.2083,60.488,-62.744,1005.3,1.41,-999.0,yes,yes,no,300234067974330,BD2GI,AOML,CCGS_AMUNDSEN,North
2020-11-01T06:00:00Z,2020,6,0,306.25,306.25,60.491,-62.683,1005.5,1.43,-999.0,yes,yes,no,300234067974330,BD2GI,AOML,CCGS_AMUNDSEN,North
2020-11-01T07:00:02Z,2020,7,0,306.2917,306.2917,60.488,-62.623,1006.2,1.43,-999.0,yes,yes,no,300234067974330,BD2GI,AOML,CCGS_AMUNDSEN,North
2020-11-01T07:59:57Z,2020,8,0,306.3333,306.3333,60.479,-62.573,1006.2,1.42,-999.0,yes,yes,no,300234067974330,BD2GI,AOML,CCGS_AMUNDSEN,North
2020-11-01T09:00:00Z,2020,9,0,306.375,306.375,60.471,-62.533,1006.6,1.42,-999.0,yes,yes,no,300234067974330,BD2GI,AOML,CCGS_AMUNDSEN,North
2020-11-01T10:00:02Z,2020,10,0,306.4167,306.4167,60.465,-62.508,1006.7,1.42,-999.0,yes,yes,no,300234067974330,BD2GI,AOML,CCGS_AMUNDSEN,North
2020-11-01T10:59:57Z,2020,11,0,306.4583,306.4583,60.459,-62.496,1006.6,1.46,-999.0,yes,yes,no,300234067974330,BD2GI,AOML,CCGS_AMUNDSEN,North
2020-11-01T12:00:00Z,2020,12,0,306.5,306.5,60.455,-62.494,1006.7,1.46,-999.0,yes,yes,no,300234067974330,BD2GI,AOML,CCGS_AMUNDSEN,North
2020-11-01T13:00:02Z,2020,13,0,306.5417,306.5417,60.451,-62.492,1006.8,1.49,-999.0,yes,yes,no,300234067974330,BD2GI,AOML,CCGS_AMUNDSEN,North
2020-11-01T13:59:57Z,2020,14,0,306.5833,306.5833,60.449,-62.486,1006.6,1.5,-999.0,yes,yes,no,300234067974330,BD2GI,AOML,CCGS_AMUNDSEN,North
2020-11-01T15:00:00Z,2020,15,0,306.625,306.625,60.449,-62.474,1006.6,1.5,-999.0,yes,yes,no,300234067974330,BD2GI,AOML,CCGS_AMUNDSEN,North
2020-11-01T16:00:02Z,2020,16,0,306.6667,306.6667,60.451,-62.449,1006.4,1.5,-999.0,yes,yes,no,300234067974330,BD2GI,AOML,CCGS_AMUNDSEN,North
2020-11-01T16:59:57Z,2020,17,0,306.7083,306.7083,60.452,-62.418,1006.2,1.52,-999.0,yes,yes,no,300234067974330,BD2GI,AOML,CCGS_AMUNDSEN,North
2020-11-01T18:00:00Z,2020,18,0,306.75,306.75,60.454,-62.385,1006.1,1.51,-999.0,yes,yes,no,300234067974330,BD2GI,AOML,CCGS_AMUNDSEN,North
2020-11-01T19:00:02Z,2020,19,0,306.7917,306.7917,60.459,-62.365,1005.8,1.19,-999.0,yes,yes,no,300234067974330,BD2GI,AOML,CCGS_AMUNDSEN,North
2020-11-01T19:59:57Z,2020,20,0,306.8333,306.8333,60.462,-62.354,1005.1,1.24,-999.0,yes,yes,no,300234067974330,BD2GI,AOML,CCGS_AMUNDSEN,North
2020-11-01T21:00:00Z,2020,21,0,306.875,306.875,60.47,-62.353,1004.8,1.3,-999.0,yes,yes,no,300234067974330,BD2GI,AOML,CCGS_AMUNDSEN,North
2020-11-01T22:00:02Z,2020,22,0,306.9167,306.9167,60.48,-62.36,1004.0,1.18,-999.0,yes,yes,no,300234067974330,BD2GI,AOML,CCGS_AMUNDSEN,North
2020-11-01T22:59:57Z,2020,23,0,306.9583,306.9583,60.491,-62.376,1003.5,1.19,-999.0,yes,yes,no,300234067974330,BD2GI,AOML,CCGS_AMUNDSEN,North
2020-11-02T00:00:00Z,2020,0,0,307.0,307.0,60.5,-62.388,1002.6,1.33,-999.0,yes,yes,no,300234067974330,BD2GI,AOML,CCGS_AMUNDSEN,North
2020-11-02T01:00:02Z,2020,1,0,307.0417,307.0417,60.507,-62.395,1001.7,1.4,-999.0,yes,yes,no,300234067974330,BD2GI,AOML,CCGS_AMUNDSEN,North
2020-11-02T01:59:57Z,2020,2,0,307.0833,307.0833,60.51,-62.395,1000.9,1.42,-999.0,yes,yes,no,300234067974330,BD2GI,AOML,CCGS_AMUNDSEN,North
2020-11-02T03:00:00Z,2020,3,0,307.125,307.125,60.509,-62.39,999.9,1.44,-999.0,yes,yes,no,300234067974330,BD2GI,AOML,CCGS_AMUNDSEN,North
2020-11-02T04:00:02Z,2020,4,0,307.1667,307.1667,60.504,-62.385,998.4,1.45,-999.0,yes,yes,no,300234067974330,BD2GI,AOML,CCGS_AMUNDSEN,North
2020-11-02T04:59:57Z,2020,5,0,307.2083,307.2083,60.498,-62.387,997.5,1.44,-999.0,yes,yes,no,300234067974330,BD2GI,AOML,CCGS_AMUNDSEN,North
2020-11-02T06:00:00Z,2020,6,0,307.25,307.25,60.496,-62.397,996.4,1.41,-999.0,yes,yes,no,300234067974330,BD2GI,AOML,CCGS_AMUNDSEN,North
2020-11-02T07:00:02Z,2020,7,0,307.2917,307.2917,60.5,-62.411,995.3,1.4,-999.0,yes,yes,no,300234067974330,BD2GI,AOML,CCGS_AMUNDSEN,North
2020-11-02T07:59:57Z,2020,8,0,307.3333,307.3333,60.51,-62.426,994.3,1.39,-999.0,yes,yes,no,300234067974330,BD2GI,AOML,CCGS_AMUNDSEN,North
2020-11-02T09:00:00Z,2020,9,0,307.375,307.375,60.524,-62.439,993.3,1.34,-999.0,yes,yes,no,300234067974330,BD2GI,AOML,CCGS_AMUNDSEN,North
2020-11-02T10:00:02Z,2020,10,0,307.4167,307.4167,60.539,-62.445,992.6,1.28,-999.0,yes,yes,no,300234067974330,BD2GI,AOML,CCGS_AMUNDSEN,North
2020-11-02T10:59:57Z,2020,11,0,307.4583,307.4583,60.547,-62.443,992.1,1.27,-999.0,yes,yes,no,300234067974330,BD2GI,AOML,CCGS_AMUNDSEN,North
2020-11-02T12:00:00Z,2020,12,0,307.5,307.5,60.547,-62.444,991.8,1.29,-999.0,yes,yes,no,300234067974330,BD2GI,AOML,CCGS_AMUNDSEN,North
2020-11-02T13:00:02Z,2020,13,0,307.5417,307.5417,60.537,-62.45,991.3,1.22,-999.0,yes,yes,no,300234067974330,BD2GI,AOML,CCGS_AMUNDSEN,North
2020-11-02T13:59:57Z,2020,14,0,307.5833,307.5833,60.526,-62.459,990.6,1.17,-999.0,yes,yes,no,300234067974330,BD2GI,AOML,CCGS_AMUNDSEN,North
2020-11-02T15:00:00Z,2020,15,0,307.625,307.625,60.51,-62.466,990.7,1.02,-999.0,yes,yes,no,300234067974330,BD2GI,AOML,CCGS_AMUNDSEN,North
2020-11-02T16:00:02Z,2020,16,0,307.6667,307.6667,60.496,-62.478,990.2,1.05,-999.0,yes,yes,no,300234067974330,BD2GI,AOML,CCGS_AMUNDSEN,North
2020-11-02T16:59:57Z,2020,17,0,307.7083,307.7083,60.486,-62.49,990.4,1.14,-999.0,yes,yes,no,300234067974330,BD2GI,AOML,CCGS_AMUNDSEN,North
2020-11-02T18:00:00Z,2020,18,0,307.75,307.75,60.482,-62.501,989.6,1.07,-999.0,yes,yes,no,300234067974330,BD2GI,AOML,CCGS_AMUNDSEN,North
2020-11-02T19:00:02Z,2020,19,0,307.7917,307.7917,60.486,-62.501,989.4,1.13,-999.0,yes,yes,no,300234067974330,BD2GI,AOML,CCGS_AMUNDSEN,North
2020-11-02T19:59:57Z,2020,20,0,307.8333,307.8333,60.493,-62.483,988.8,1.01,-999.0,yes,yes,no,300234067974330,BD2GI,AOML,CCGS_AMUNDSEN,North
2020-11-02T21:00:00Z,2020,21,0,307.875,307.875,60.502,-62.464,988.3,1.17,-999.0,yes,yes,no,300234067974330,BD2GI,AOML,CCGS_AMUNDSEN,North
2020-11-02T22:00:02Z,2020,22,0,307.9167,307.9167,60.509,-62.452,987.7,1.15,-999.0,yes,yes,no,300234067974330,BD2GI,AOML,CCGS_AMUNDSEN,North
2020-11-02T22:59:57Z,2020,23,0,307.9583,307.9583,60.512,-62.447,987.0,1.17,-999.0,yes,yes,no,300234067974330,BD2GI,AOML,CCGS_AMUNDSEN,North
2020-11-03T00:00:00Z,2020,0,0,308.0,308.0,60.512,-62.45,985.6,1.15,-999.0,yes,yes,no,300234067974330,BD2GI,AOML,CCGS_AMUNDSEN,North
2020-11-03T01:00:02Z,2020,1,0,308.0417,308.0417,60.505,-62.457,983.8,1.11,-999.0,yes,yes,no,300234067974330,BD2GI,AOML,CCGS_AMUNDSEN,North
2020-11-03T01:59:57Z,2020,2,0,308.0833,308.0833,60.496,-62.46,981.8,1.11,-999.0,yes,yes,no,300234067974330,BD2GI,AOML,CCGS_AMUNDSEN,North
2020-11-03T03:00:00Z,2020,3,0,308.125,308.125,60.485,-62.461,979.5,1.12,-999.0,yes,yes,no,300234067974330,BD2GI,AOML,CCGS_AMUNDSEN,North
2020-11-03T04:00:02Z,2020,4,0,308.1667,308.1667,60.474,-62.455,977.6,1.13,-999.0,yes,yes,no,300234067974330,BD2GI,AOML,CCGS_AMUNDSEN,North
2020-11-03T04:59:57Z,2020,5,0,308.2083,308.2083,60.46,-62.446,975.3,1.15,-999.0,yes,yes,no,300234067974330,BD2GI,AOML,CCGS_AMUNDSEN,North
2020-11-03T06:00:00Z,2020,6,0,308.25,308.25,60.448,-62.443,972.5,1.18,-999.0,yes,yes,no,300234067974330,BD2GI,AOML,CCGS_AMUNDSEN,North
2020-11-03T07:00:02Z,2020,7,0,308.2917,308.2917,60.438,-62.437,969.1,1.16,-999.0,yes,yes,no,300234067974330,BD2GI,AOML,CCGS_AMUNDSEN,North
2020-11-03T07:59:57Z,2020,8,0,308.3333,308.3333,60.43,-62.43,966.8,1.18,-999.0,yes,yes,no,300234067974330,BD2GI,AOML,CCGS_AMUNDSEN,North
2020-11-03T09:00:00Z,2020,9,0,308.375,308.375,60.425,-62.422,965.3,1.17,-999.0,yes,yes,no,300234067974330,BD2GI,AOML,CCGS_AMUNDSEN,North
2020-11-03T10:00:02Z,2020,10,0,308.4167,308.4167,60.419,-62.414,963.7,1.14,-999.0,yes,yes,no,300234067974330,BD2GI,AOML,CCGS_AMUNDSEN,North
2020-11-03T10:59:57Z,2020,11,0,308.4583,308.4583,60.411,-62.407,962.8,1.13,-999.0,yes,yes,no,300234067974330,BD2GI,AOML,CCGS_AMUNDSEN,North
2020-11-03T12:00:00Z,2020,12,0,308.5,308.5,60.402,-62.395,963.0,1.17,-999.0,yes,yes,no,300234067974330,BD2GI,AOML,CCGS_AMUNDSEN,North
2020-11-03T13:00:02Z,2020,13,0,308.5417,308.5417,60.391,-62.389,964.0,1.22,-999.0,yes,yes,no,300234067974330,BD2GI,AOML,CCGS_AMUNDSEN,North
2020-11-03T13:59:57Z,2020,14,0,308.5833,308.5833,60.376,-62.382,965.5,1.25,-999.0,yes,yes,no,300234067974330,BD2GI,AOML,CCGS_AMUNDSEN,North
2020-11-03T15:00:00Z,2020,15,0,308.625,308.625,60.363,-62.371,967.0,1.3,-999.0,yes,yes,no,300234067974330,BD2GI,AOML,CCGS_AMUNDSEN,North
2020-11-03T16:00:02Z,2020,16,0,308.6667,308.6667,60.349,-62.348,969.0,1.33,-999.0,yes,yes,no,300234067974330,BD2GI,AOML,CCGS_AMUNDSEN,North
2020-11-03T16:59:57Z,2020,17,0,308.7083,308.7083,60.336,-62.31,970.8,1.34,-999.0,yes,yes,no,300234067974330,BD2GI,AOML,CCGS_AMUNDSEN,North
2020-11-03T18:00:00Z,2020,18,0,308.75,308.75,60.322,-62.264,972.8,1.35,-999.0,yes,yes,no,300234067974330,BD2GI,AOML,CCGS_AMUNDSEN,North
2020-11-03T19:00:02Z,2020,19,0,308.7917,308.7917,60.309,-62.214,974.9,1.36,-999.0,yes,yes,no,300234067974330,BD2GI,AOML,CCGS_AMUNDSEN,North
2020-11-03T19:59:57Z,2020,20,0,308.8333,308.8333,60.297,-62.165,976.7,1.35,-999.0,yes,yes,no,300234067974330,BD2GI,AOML,CCGS_AMUNDSEN,North
2020-11-03T21:00:00Z,2020,21,0,308.875,308.875,60.282,-62.128,979.0,1.35,-999.0,yes,yes,no,300234067974330,BD2GI,AOML,CCGS_AMUNDSEN,North
2020-11-03T22:00:02Z,2020,22,0,308.9167,308.9167,60.265,-62.111,980.7,1.35,-999.0,yes,yes,no,300234067974330,BD2GI,AOML,CCGS_AMUNDSEN,North
2020-11-03T22:59:57Z,2020,23,0,308.9583,308.9583,60.252,-62.107,982.4,1.35,-999.0,yes,yes,no,300234067974330,BD2GI,AOML,CCGS_AMUNDSEN,North
2020-11-04T00:00:00Z,2020,0,0,309.0,309.0,60.241,-62.121,984.0,1.34,-999.0,yes,yes,no,300234067974330,BD2GI,AOML,CCGS_AMUNDSEN,North
2020-11-04T01:00:02Z,2020,1,0,309.0417,309.0417,60.236,-62.137,985.8,1.34,-999.0,yes,yes,no,300234067974330,BD2GI,AOML,CCGS_AMUNDSEN,North
2020-11-04T01:59:57Z,2020,2,0,309.0833,309.0833,60.234,-62.151,987.5,1.34,-999.0,yes,yes,no,300234067974330,BD2GI,AOML,CCGS_AMUNDSEN,North
2020-11-04T03:00:00Z,2020,3,0,309.125,309.125,60.233,-62.157,989.0,1.33,-999.0,yes,yes,no,300234067974330,BD2GI,AOML,CCGS_AMUNDSEN,North
2020-11-04T04:00:02Z,2020,4,0,309.1667,309.1667,60.233,-62.149,990.5,1.33,-999.0,yes,yes,no,300234067974330,BD2GI,AOML,CCGS_AMUNDSEN,North
2020-11-04T04:59:57Z,2020,5,0,309.2083,309.2083,60.233,-62.121,991.6,1.33,-999.0,yes,yes,no,300234067974330,BD2GI,AOML,CCGS_AMUNDSEN,North
2020-11-04T06:00:00Z,2020,6,0,309.25,309.25,60.23,-62.074,993.2,1.33,-999.0,yes,yes,no,300234067974330,BD2GI,AOML,CCGS_AMUNDSEN,North
2020-11-04T07:00:02Z,2020,7,0,309.2917,309.2917,60.222,-62.025,994.5,1.33,-999.0,yes,yes,no,300234067974330,BD2GI,AOML,CCGS_AMUNDSEN,North
2020-11-04T07:59:57Z,2020,8,0,309.3333,309.3333,60.21,-61.977,996.1,1.33,-999.0,yes,yes,no,300234067974330,BD2GI,AOML,CCGS_AMUNDSEN,North
2020-11-04T09:00:00Z,2020,9,0,309.375,309.375,60.195,-61.938,997.8,1.31,-999.0,yes,yes,no,300234067974330,BD2GI,AOML,CCGS_AMUNDSEN,North
2020-11-04T10:00:02Z,2020,10,0,309.4167,309.4167,60.179,-61.914,999.4,1.31,-999.0,yes,yes,no,300234067974330,BD2GI,AOML,CCGS_AMUNDSEN,North
2020-11-04T10:59:57Z,2020,11,0,309.4583,309.4583,60.164,-61.906,1001.0,1.31,-999.0,yes,yes,no,300234067974330,BD2GI,AOML,CCGS_AMUNDSEN,North
2020-11-04T12:00:00Z,2020,12,0,309.5,309.5,60.153,-61.913,1002.5,1.31,-999.0,yes,yes,no,300234067974330,BD2GI,AOML,CCGS_AMUNDSEN,North
2020-11-04T13:00:02Z,2020,13,0,309.5417,309.5417,60.145,-61.928,1004.0,1.3,-999.0,yes,yes,no,300234067974330,BD2GI,AOML,CCGS_AMUNDSEN,North
2020-11-04T13:59:57Z,2020,14,0,309.5833,309.5833,60.14,-61.946,1005.5,1.29,-999.0,yes,yes,no,300234067974330,BD2GI,AOML,CCGS_AMUNDSEN,North
2020-11-04T15:00:00Z,2020,15,0,309.625,309.625,60.139,-61.964,1006.7,1.23,-999.0,yes,yes,no,300234067974330,BD2GI,AOML,CCGS_AMUNDSEN,North
2020-11-04T16:00:02Z,2020,16,0,309.6667,309.6667,60.14,-61.96,1008.1,1.37,-999.0,yes,yes,no,300234067974330,BD2GI,AOML,CCGS_AMUNDSEN,North
2020-11-04T16:59:57Z,2020,17,0,309.7083,309.7083,60.14,-61.93,1009.2,1.43,-999.0,yes,yes,no,300234067974330,BD2GI,AOML,CCGS_AMUNDSEN,North
2020-11-04T18:00:00Z,2020,18,0,309.75,309.75,60.137,-61.887,1010.9,1.43,-999.0,yes,yes,no,300234067974330,BD2GI,AOML,CCGS_AMUNDSEN,North
2020-11-04T19:00:02Z,2020,19,0,309.7917,309.7917,60.13,-61.837,1012.2,1.38,-999.0,yes,yes,no,300234067974330,BD2GI,AOML,CCGS_AMUNDSEN,North
2020-11-04T19:59:57Z,2020,20,0,309.8333,309.8333,60.118,-61.791,1013.4,1.33,-999.0,yes,yes,no,300234067974330,BD2GI,AOML,CCGS_AMUNDSEN,North
2020-11-04T21:00:00Z,2020,21,0,309.875,309.875,60.104,-61.758,1014.2,1.3,-999.0,yes,yes,no,300234067974330,BD2GI,AOML,CCGS_AMUNDSEN,North
2020-11-04T22:00:02Z,2020,22,0,309.9167,309.9167,60.09,-61.732,1015.2,1.34,-999.0,yes,yes,no,300234067974330,BD2GI,AOML,CCGS_AMUNDSEN,North
2020-11-04T22:59:57Z,2020,23,0,309.9583,309.9583,60.077,-61.721,1015.7,1.35,-999.0,yes,yes,no,300234067974330,BD2GI,AOML,CCGS_AMUNDSEN,North
2020-11-05T00:00:00Z,2020,0,0,310.0,310.0,60.067,-61.72,1015.9,1.29,-999.0,yes,yes,no,300234067974330,BD2GI,AOML,CCGS_AMUNDSEN,North
2020-11-05T01:00:02Z,2020,1,0,310.0417,310.0417,60.06,-61.726,1016.1,1.32,-999.0,yes,yes,no,300234067974330,BD2GI,AOML,CCGS_AMUNDSEN,North
2020-11-05T01:59:57Z,2020,2,0,310.0833,310.0833,60.057,-61.734,1016.1,1.32,-999.0,yes,yes,no,300234067974330,BD2GI,AOML,CCGS_AMUNDSEN,North
2020-11-05T03:00:00Z,2020,3,0,310.125,310.125,60.057,-61.734,1016.2,1.34,-999.0,yes,yes,no,300234067974330,BD2GI,AOML,CCGS_AMUNDSEN,North
2020-11-05T04:00:02Z,2020,4,0,310.1667,310.1667,60.057,-61.725,1016.1,1.29,-999.0,yes,yes,no,300234067974330,BD2GI,AOML,CCGS_AMUNDSEN,North
2020-11-05T04:59:57Z,2020,5,0,310.2083,310.2083,60.057,-61.724,1016.2,1.1,-999.0,yes,yes,no,300234067974330,BD2GI,AOML,CCGS_AMUNDSEN,North
2020-11-05T06:00:00Z,2020,6,0,310.25,310.25,60.057,-61.708,1016.5,1.22,-999.0,yes,yes,no,300234067974330,BD2GI,AOML,CCGS_AMUNDSEN,North
2020-11-05T07:00:02Z,2020,7,0,310.2917,310.2917,60.054,-61.674,1017.4,1.3,-999.0,yes,yes,no,300234067974330,BD2GI,AOML,CCGS_AMUNDSEN,North
2020-11-05T07:59:57Z,2020,8,0,310.3333,310.3333,60.048,-61.635,1018.1,1.31,-999.0,yes,yes,no,300234067974330,BD2GI,AOML,CCGS_AMUNDSEN,North
2020-11-05T09:00:00Z,2020,9,0,310.375,310.375,60.036,-61.591,1018.5,1.27,-999.0,yes,yes,no,300234067974330,BD2GI,AOML,CCGS_AMUNDSEN,North
2020-11-05T10:00:02Z,2020,10,0,310.4167,310.4167,60.024,-61.558,1018.9,1.26,-999.0,yes,yes,no,300234067974330,BD2GI,AOML,CCGS_AMUNDSEN,North
2020-11-05T10:59:57Z,2020,11,0,310.4583,310.4583,60.011,-61.53,1018.6,1.29,-999.0,yes,yes,no,300234067974330,BD2GI,AOML,CCGS_AMUNDSEN,North
2020-11-05T12:00:00Z,2020,12,0,310.5,310.5,59.999,-61.518,1018.7,1.25,-999.0,yes,yes,no,300234067974330,BD2GI,AOML,CCGS_AMUNDSEN,North
2020-11-05T13:00:02Z,2020,13,0,310.5417,310.5417,59.987,-61.516,1018.3,1.29,-999.0,yes,yes,no,300234067974330,BD2GI,AOML,CCGS_AMUNDSEN,North
2020-11-05T13:59:57Z,2020,14,0,310.5833,310.5833,59.977,-61.523,1017.7,1.24,-999.0,yes,yes,no,300234067974330,BD2GI,AOML,CCGS_AMUNDSEN,North
2020-11-05T15:00:00Z,2020,15,0,310.625,310.625,59.972,-61.533,1016.9,1.33,-999.0,yes,yes,no,300234067974330,BD2GI,AOML,CCGS_AMUNDSEN,North
2020-11-05T16:00:02Z,2020,16,0,310.6667,310.6667,59.969,-61.539,1016.2,1.3,-999.0,yes,yes,no,300234067974330,BD2GI,AOML,CCGS_AMUNDSEN,North
2020-11-05T16:59:57Z,2020,17,0,310.7083,310.7083,59.969,-61.536,1015.2,1.33,-999.0,yes,yes,no,300234067974330,BD2GI,AOML,CCGS_AMUNDSEN,North
2020-11-05T18:00:00Z,2020,18,0,310.75,310.75,59.975,-61.535,1014.0,0.98,-999.0,yes,yes,no,300234067974330,BD2GI,AOML,CCGS_AMUNDSEN,North
2020-11-05T19:00:02Z,2020,19,0,310.7917,310.7917,59.981,-61.528,1012.3,1.13,-999.0,yes,yes,no,300234067974330,BD2GI,AOML,CCGS_AMUNDSEN,North
2020-11-05T19:59:57Z,2020,20,0,310.8333,310.8333,59.987,-61.505,1010.4,1.13,-999.0,yes,yes,no,300234067974330,BD2GI,AOML,CCGS_AMUNDSEN,North
2020-11-05T21:00:00Z,2020,21,0,310.875,310.875,59.991,-61.472,1008.0,1.13,-999.0,yes,yes,no,300234067974330,BD2GI,AOML,CCGS_AMUNDSEN,North
2020-11-05T22:00:02Z,2020,22,0,310.9167,310.9167,59.992,-61.436,1005.5,1.14,-999.0,yes,yes,no,300234067974330,BD2GI,AOML,CCGS_AMUNDSEN,North
2020-11-05T22:59:57Z,2020,23,0,310.9583,310.9583,59.993,-61.402,1002.3,1.16,-999.0,yes,yes,no,300234067974330,BD2GI,AOML,CCGS_AMUNDSEN,North
2020-11-06T00:00:00Z,2020,0,0,311.0,311.0,59.99,-61.378,999.8,1.18,-999.0,yes,yes,no,300234067974330,BD2GI,AOML,CCGS_AMUNDSEN,North
2020-11-06T01:00:02Z,2020,1,0,311.0417,311.0417,59.984,-61.375,997.6,1.19,-999.0,yes,yes,no,300234067974330,BD2GI,AOML,CCGS_AMUNDSEN,North
2020-11-06T01:59:57Z,2020,2,0,311.0833,311.0833,59.982,-61.39,994.8,1.2,-999.0,yes,yes,no,300234067974330,BD2GI,AOML,CCGS_AMUNDSEN,North
2020-11-06T03:00:00Z,2020,3,0,311.125,311.125,59.985,-61.407,991.5,1.2,-999.0,yes,yes,no,300234067974330,BD2GI,AOML,CCGS_AMUNDSEN,North
2020-11-06T04:00:02Z,2020,4,0,311.1667,311.1667,59.992,-61.424,988.3,1.21,-999.0,yes,yes,no,300234067974330,BD2GI,AOML,CCGS_AMUNDSEN,North
2020-11-06T04:59:57Z,2020,5,0,311.2083,311.2083,60.001,-61.432,987.5,1.18,-999.0,yes,yes,no,300234067974330,BD2GI,AOML,CCGS_AMUNDSEN,North
2020-11-06T06:00:00Z,2020,6,0,311.25,311.25,60.015,-61.422,986.3,1.19,-999.0,yes,yes,no,300234067974330,BD2GI,AOML,CCGS_AMUNDSEN,North
2020-11-06T07:00:02Z,2020,7,0,311.2917,311.2917,60.026,-61.394,986.0,1.18,-999.0,yes,yes,no,300234067974330,BD2GI,AOML,CCGS_AMUNDSEN,North
2020-11-06T07:59:57Z,2020,8,0,311.3333,311.3333,60.032,-61.349,985.8,1.17,-999.0,yes,yes,no,300234067974330,BD2GI,AOML,CCGS_AMUNDSEN,North
2020-11-06T09:00:00Z,2020,9,0,311.375,311.375,60.032,-61.3,986.0,1.15,-999.0,yes,yes,no,300234067974330,BD2GI,AOML,CCGS_AMUNDSEN,North
2020-11-06T10:00:02Z,2020,10,0,311.4167,311.4167,60.024,-61.255,986.0,1.15,-999.0,yes,yes,no,300234067974330,BD2GI,AOML,CCGS_AMUNDSEN,North
2020-11-06T10:59:57Z,2020,11,0,311.4583,311.4583,60.012,-61.225,986.3,1.15,-999.0,yes,yes,no,300234067974330,BD2GI,AOML,CCGS_AMUNDSEN,North
2020-11-06T12:00:00Z,2020,12,0,311.5,311.5,59.997,-61.214,986.6,1.17,-999.0,yes,yes,no,300234067974330,BD2GI,AOML,CCGS_AMUNDSEN,North
2020-11-06T13:00:02Z,2020,13,0,311.5417,311.5417,59.984,-61.219,986.7,1.14,-999.0,yes,yes,no,300234067974330,BD2GI,AOML,CCGS_AMUNDSEN,North
2020-11-06T13:59:57Z,2020,14,0,311.5833,311.5833,59.974,-61.235,986.6,1.13,-999.0,yes,yes,no,300234067974330,BD2GI,AOML,CCGS_AMUNDSEN,North
2020-11-06T15:00:00Z,2020,15,0,311.625,311.625,59.97,-61.26,986.8,1.09,-999.0,yes,yes,no,300234067974330,BD2GI,AOML,CCGS_AMUNDSEN,North
2020-11-06T16:00:02Z,2020,16,0,311.6667,311.6667,59.972,-61.274,987.4,1.1,-999.0,yes,yes,no,300234067974330,BD2GI,AOML,CCGS_AMUNDSEN,North
2020-11-06T16:59:57Z,2020,17,0,311.7083,311.7083,59.976,-61.266,988.2,1.09,-999.0,yes,yes,no,300234067974330,BD2GI,AOML,CCGS_AMUNDSEN,North
2020-11-06T18:00:00Z,2020,18,0,311.75,311.75,59.976,-61.239,989.7,1.09,-999.0,yes,yes,no,300234067974330,BD2GI,AOML,CCGS_AMUNDSEN,North
2020-11-06T19:00:02Z,2020,19,0,311.7917,311.7917,59.97,-61.203,991.4,1.06,-999.0,yes,yes,no,300234067974330,BD2GI,AOML,CCGS_AMUNDSEN,North
2020-11-06T19:59:57Z,2020,20,0,311.8333,311.8333,59.958,-61.17,992.6,1.06,-999.0,yes,yes,no,300234067974330,BD2GI,AOML,CCGS_AMUNDSEN,North
2020-11-06T21:00:00Z,2020,21,0,311.875,311.875,59.942,-61.148,994.4,1.06,-999.0,yes,yes,no,300234067974330,BD2GI,AOML,CCGS_AMUNDSEN,North
2020-11-06T22:00:02Z,2020,22,0,311.9167,311.9167,59.927,-61.134,996.1,1.02,-999.0,yes,yes,no,300234067974330,BD2GI,AOML,CCGS_AMUNDSEN,North